Time,TemperatureF,DewpointF,PressureIn,WindDirection,WindDirectionDegrees,WindSpeedMPH,WindSpeedGustMPH,Humidity,HourlyPrecipIn,Conditions,Clouds,dailyrainin,SoftwareType,DateUTC
2013-04-06 00:35:00,50.0,-99.9,-100.00,WSW,244,0.0,0.0,-999,-99.99,,,-99.99,,2013-04-06 07:35:00,
2013-04-06 00:45:00,50.0,-99.9,-100.00,WSW,244,0.0,0.0,-999,-99.99,,,-99.99,,2013-04-06 07:45:00,
2013-04-06 02:00:00,47.0,-99.9,-100.00,SW,230,0.0,0.0,-999,-99.99,,,-99.99,,2013-04-06 09:00:00,
2013-04-06 02:33:00,47.0,-99.9,-100.00,SW,230,0.0,0.0,-999,-99.99,,,-99.99,,2013-04-06 09:33:00,
2013-04-06 02:43:00,47.0,-99.9,-100.00,SW,230,0.0,0.0,-999,-99.99,,,-99.99,,2013-04-06 09:43:00,
2013-04-06 02:54:00,47.0,-99.9,-100.00,SW,230,0.0,0.0,-999,-99.99,,,-99.99,,2013-04-06 09:54:00,
2013-04-06 03:10:00,47.0,-99.9,-100.00,East,88,0.0,0.0,-999,-99.99,,,-99.99,,2013-04-06 10:10:00,
2013-04-06 03:50:00,45.0,-99.9,-100.00,NW,323,0.0,0.0,-999,-99.99,,,-99.99,,2013-04-06 10:50:00,
2013-04-06 03:54:00,47.0,-99.9,-100.00,East,88,0.0,0.0,-999,-99.99,,,-99.99,,2013-04-06 10:54:00,
2013-04-06 04:03:00,47.0,-99.9,-100.00,East,88,0.0,0.0,-999,-99.99,,,-99.99,,2013-04-06 11:03:00,
2013-04-06 04:23:00,47.0,-99.9,-100.00,NW,321,0.0,0.0,-999,-99.99,,,-99.99,,2013-04-06 11:23:00,
2013-04-06 04:33:00,45.0,-99.9,-100.00,NW,323,0.0,0.0,-999,-99.99,,,-99.99,,2013-04-06 11:33:00,
2013-04-06 04:43:00,45.0,-99.9,-100.00,NW,323,0.0,0.0,-999,-99.99,,,-99.99,,2013-04-06 11:43:00,
2013-04-06 06:50:00,44.0,-99.9,-100.00,SW,234,0.0,0.0,-999,-99.99,,,-99.99,,2013-04-06 13:50:00,
2013-04-06 07:33:00,44.0,-99.9,-100.00,SW,234,0.0,0.0,-999,-99.99,,,-99.99,,2013-04-06 14:33:00,
2013-04-06 07:43:00,44.0,-99.9,-100.00,SW,234,0.0,0.0,-999,-99.99,,,-99.99,,2013-04-06 14:43:00,
2013-04-06 08:15:00,48.0,-99.9,-100.00,WSW,249,0.0,0.0,-999,-99.99,,,-99.99,,2013-04-06 15:15:00,
2013-04-06 09:05:00,48.0,-99.9,-100.00,WSW,249,0.0,0.0,-999,-99.99,,,-99.99,,2013-04-06 16:05:00,
2013-04-06 10:23:00,48.0,-99.9,-100.00,SW,226,0.0,0.0,-999,-99.99,,,-99.99,,2013-04-06 17:23:00,
2013-04-06 10:33:00,48.0,-99.9,-100.00,SW,226,0.0,0.0,-999,-99.99,,,-99.99,,2013-04-06 17:33:00,
2013-04-06 10:40:00,47.0,-99.9,-100.00,SW,232,0.0,0.0,-999,-99.99,,,-99.99,,2013-04-06 17:40:00,
2013-04-06 11:24:00,47.0,-99.9,-100.00,SW,232,0.0,0.0,-999,-99.99,,,-99.99,,2013-04-06 18:24:00,
2013-04-06 11:33:00,47.0,-99.9,-100.00,SW,232,0.0,0.0,-999,-99.99,,,-99.99,,2013-04-06 18:33:00,
2013-04-06 13:03:00,51.0,-99.9,-100.00,SW,230,0.0,0.0,-999,-99.99,,,-99.99,,2013-04-06 20:03:00,
2013-04-06 13:13:00,51.0,-99.9,-100.00,SW,230,0.0,0.0,-999,-99.99,,,-99.99,,2013-04-06 20:13:00,
2013-04-06 13:23:00,51.0,-99.9,-100.00,SW,230,0.0,0.0,-999,-99.99,,,-99.99,,2013-04-06 20:23:00,
2013-04-06 13:42:00,51.0,-99.9,-100.00,SW,226,0.0,0.0,-999,-99.99,,,-99.99,,2013-04-06 20:42:00,
2013-04-06 13:53:00,54.0,-99.9,-100.00,SW,224,0.0,0.0,-999,-99.99,,,-99.99,,2013-04-06 20:53:00,
2013-04-06 14:03:00,54.0,-99.9,-100.00,NW,322,0.0,0.0,-999,-99.99,,,-99.99,,2013-04-06 21:03:00,
2013-04-06 14:14:00,54.0,-99.9,-100.00,NW,322,0.0,0.0,-999,-99.99,,,-99.99,,2013-04-06 21:14:00,
2013-04-06 14:22:00,54.0,-99.9,-100.00,NW,322,0.0,0.0,-999,-99.99,,,-99.99,,2013-04-06 21:22:00,
2013-04-06 15:55:00,57.0,-99.9,-100.00,SW,230,0.0,0.0,-999,-99.99,,,-99.99,,2013-04-06 22:55:00,
2013-04-06 16:04:00,57.0,-99.9,-100.00,SW,230,0.0,0.0,-999,-99.99,,,-99.99,,2013-04-06 23:04:00,
2013-04-06 17:00:00,58.0,-99.9,-100.00,NW,325,0.0,0.0,-999,-99.99,,,-99.99,,2013-04-07 00:00:00,
2013-04-06 17:03:00,59.0,-99.9,-100.00,WSW,248,0.0,0.0,-999,-99.99,,,-99.99,,2013-04-07 00:03:00,
2013-04-06 17:13:00,59.0,-99.9,-100.00,WSW,248,0.0,0.0,-999,-99.99,,,-99.99,,2013-04-07 00:13:00,
2013-04-06 17:23:00,59.0,-99.9,-100.00,WSW,248,0.0,0.0,-999,-99.99,,,-99.99,,2013-04-07 00:23:00,
2013-04-06 17:40:00,54.0,-99.9,-100.00,North,-999,-999.0,-999.0,-999,-99.99,,,-99.99,,2013-04-07 00:40:00,
2013-04-06 17:54:00,58.0,-99.9,-100.00,NW,325,0.0,0.0,-999,-99.99,,,-99.99,,2013-04-07 00:54:00,
2013-04-06 18:24:00,54.0,-99.9,-100.00,North,-999,-999.0,-999.0,-999,-99.99,,,-99.99,,2013-04-07 01:24:00,
2013-04-06 18:33:00,54.0,-99.9,-100.00,North,-999,-999.0,-999.0,-999,-99.99,,,-99.99,,2013-04-07 01:33:00,
2013-04-06 18:54:00,54.0,-99.9,-100.00,East,86,0.0,0.0,-999,-99.99,,,-99.99,,2013-04-07 01:54:00,
2013-04-06 19:04:00,54.0,-99.9,-100.00,East,86,0.0,0.0,-999,-99.99,,,-99.99,,2013-04-07 02:04:00,
2013-04-06 19:13:00,54.0,-99.9,-100.00,East,86,0.0,0.0,-999,-99.99,,,-99.99,,2013-04-07 02:13:00,
2013-04-06 21:23:00,49.0,-99.9,-100.00,West,269,0.0,0.0,-999,-99.99,,,-99.99,,2013-04-07 04:23:00,
2013-04-06 21:32:00,49.0,-99.9,-100.00,West,269,0.0,0.0,-999,-99.99,,,-99.99,,2013-04-07 04:32:00,